Location: Bacea
(45.9500°N, 22.6667°E)
Time: 10:56:39
(UTC+00:00)

Cosmos 1934 Rocket - Pass Details

Date: 16 October 2021
Orbit: 939 x 998 km, 83.0° (Epoch: 07 December)

Event Time Altitude Azimuth Distance (km) Brightness Sun altitude
Rises 17:49:16 0° 194° (SSW) 3,635 7.0 -22.9°
Reaches altitude 10° 17:51:47 10° 197° (SSW) 2,684 6.4 -23.3°
Maximum altitude 17:57:54 69° 280° (W) 1,014 4.2 -24.4°
Drops below altitude 10° 18:03:59 10° 4° (N) 2,670 6.4 -25.4°
Sets 18:06:29 0° 7° (N) 3,616 7.1 -25.8°
